AirNav   Air Wisconsin Up To $57,000 Bonus
 
 1094 users online  

WN40 Coupeville Airpark
Coupeville, Washington, USA

GOING TO COUPEVILLE?


FAA INFORMATION EFFECTIVE 15 JULY 2021

Location

FAA Identifier: WN40
Lat/Long: 48-11-25.3510N 122-38-34.5970W
48-11.422517N 122-38.576617W
48.1903753,-122.6429436
(estimated)
Elevation: 200 ft. / 61 m (estimated)
Variation: 21E (1985)
From city: 3 miles S of COUPEVILLE, WA
Time zone: UTC -7 (UTC -8 during Standard Time)
Zip code: 98239

Airport Operations

Airport use: CLOSED INDEFINITELY
Activation date: 11/1983
Control tower: no
ARTCC: SEATTLE CENTER
FSS: SEATTLE FLIGHT SERVICE STATION
Attendance: UNATNDD
Wind indicator: yes
Segmented circle: no

Airport Communications

WX AWOS-3 at OKH (4 nm N): 132.775 (360-675-8431)
WX ASOS at NUW (10 nm N): PHONE 360-257-8813
WX AWOS-3P at 0S9 (11 nm SW): 119.025 (360-379-1199)
WX AWOS-3 at BVS (19 nm NE): 121.125 (360-757-7767)
WX AWOS-3PT at AWO (19 nm E): 135.625 (360-435-8045)

Nearby radio navigation aids

VOR radial/distance  VOR name  Freq  Var
CVVr116/4.6PENN COVE VOR/DME117.2019E
PAEr298/21.9PAINE VOR/DME110.6020E

 
NDB name  Hdg/Dist  Freq  Var  ID
SKAGIT/BAY VIEW192/18.924016EBVS -... ...- ...
FRIDAY HARBOR125/24.628417EFHR ..-. .... .-.
EDIZ HOOK067/30.633817ENOW -. --- .--

Airport Services

Runway Information

Runway 6/24

Dimensions: 2500 x 80 ft. / 762 x 24 m
Surface: turf
RUNWAY 6  RUNWAY 24
Traffic pattern: leftleft
Obstructions: 100 ft. trees, 400 ft. from runwaynone

Airport Ownership and Management from official FAA records

Ownership: Privately-owned
Owner: ERNEST H. YOUDERIAN
585W-500SO
COUPEVILLE, WA 98239
Phone 206-678-4147
Manager: ERNEST H. YOUDERIAN
585W-500SO
COUPEVILLE, WA 98239
Phone 206-678-4147

Airport Operational Statistics

Aircraft based on the field: 7
Single engine airplanes: 7
    

Additional Remarks

CTC WHIDBEY NAS ON 127.9 OR APCH CTL 118.2 OR ATIS ON 134.15. FOR ARPT TFC AREA HOT OR COLD JET TFC ON DLNG & TKOF.
AIRPARK APPROVED FOR PERSONAL USE ONLY.
FOR CD CTC SEATTLE ARTCC AT 253-351-3694.
(ARPT STATUS) ARPT CLSD INDEFLY.

Instrument Procedures

There are no published instrument procedures at WN40.

Some nearby airports with instrument procedures:

KOKH - AJ Eisenberg Airport (4 nm N)
KNUW - Whidbey Island Naval Air Station (Ault Field) (10 nm N)
0S9 - Jefferson County International Airport (11 nm SW)
KBVS - Skagit Regional Airport (19 nm NE)
KAWO - Arlington Municipal Airport (19 nm E)
 
Loc | Ops | Rwys | IFR | FBO | Links
Com | Nav | Svcs | Stats | Notes
Area around WN40 (Coupeville Airpark)
 
Road maps at: MapQuest Bing Google
 
Aerial photo
No photo
 
Sectional chart

 
Airport distance calculator
Flying to Coupeville Airpark? Find the distance to fly.

From to WN40

Sunrise and sunset
Times for 01-Aug-2021
 Local
(UTC-7)
 Zulu
(UTC)
Morning civil twilight05:1112:11
Sunrise05:4712:47
Sunset20:4603:46
Evening civil twilight21:2304:23

Current date and time
Zulu (UTC)  01-Aug-2021 17:21:19
Local (UTC-7)  01-Aug-2021 10:21:19
 
METAR
KNUW 
10nm N 
011656Z 24007KT 10SM FEW010 BKN160 OVC250 16/12 A3013 RMK AO2 SLP202 T01560117
K0S9 
11nm SW 
011655Z AUTO 00000KT 10SM CLR 17/13 A3009 RMK AO2
KBVS 
19nm NE 
011655Z AUTO 00000KT 7SM CLR 19/14 A3008 RMK A01
KAWO 
19nm E 
011656Z AUTO 00000KT 10SM CLR 17/14 A3009 RMK AO2 SLP193 T01720139
TAF
KNUW 
10nm N 
0115/0215 VRB06KT 9999 FEW005 OVC150 QNH3008INS FM020000 23008KT 9999 FEW015 SCT120 SCT250 QNH3009INS TEMPO 0209/0215 6000 BR BKN010 BKN100 T19/0123Z T13/0213Z FS30173
NOTAMs
Click for the latest NOTAMs
NOTAMs are issued by the DoD/FAA and will open in a separate window not controlled by AirNav.

 

 
 

Would you like to see your business listed on this page?

 If your business provides an interesting product or service to pilots, flight crews, aircraft, or users of the Coupeville Airpark, you should consider listing it here.  To start the listing process, click on the button below
 
Add a business
 

Other Pages about Coupeville Airpark

Update a link
 
Copyright © AirNav, LLC. All rights reserved. Privacy Policy  Contact